STARLINK-32739 (62498 NORAD) Tracking and Keplerian Element Data

This shows tracking and keplerian element data for the satellite.

Feedback or suggestion? Click here.




ElementValue
Catalog62498
NameSTARLINK-32739
Epoch Orbit545
Epoch Day34.04885821
Epoch Year2025
RAAN30.0903
Inclination43.0008
Eccentricity0.0001359
Argument of Perigee260.8538
Mean Anonmoly99.2168
Mean Motion15.50574752
Decay Rate1.149E-05
L11 62498U 25003M 25034.04885821 .00001149 00000+0 25410-4 0 9999
L22 62498 43.0008 30.0903 0001359 260.8538 99.2168 15.50574752 5451



Live tracking and technical data element details for STARLINK-32739 (NORAD 62498). STARLINK-32739 can be tracked NOW for your location showing map with azimuth and elevation plus other details from your city location.







IsCatalogInMostPopularTable: catalog: 62498, numindb: 13
Update: records affected: 1



GetName: 62498 STARLINK-32739

Hit Count: updated at: Sun, 18 May 2025 22:27:48 GMT